EW8354 Weather Reports


time (UTC)temp
C
wind
direction
speed
KPH
gust
KPH
rain 1hr
cm
rain 24hr
cm
rain mn
cm
humidity
%
barometer
mb
20260505041559 14 17 3.2 11.3 0.00 0.00 0.00 60 1013.5
20260505040100 14 15 3.2 9.7 0.00 0.00 0.00 59 1013.5
20260505034558 14 20 4.8 11.3 0.00 0.00 0.00 59 1013.5
20260505033056 14 23 4.8 12.9 0.00 0.00 0.00 59 1013.4
20260505031558 15 10 6.4 12.9 0.00 0.00 0.00 59 1013.4
20260505030053 15 34 3.2 11.3 0.00 0.00 0.00 59 1013.5
20260505024607 15 356 6.4 14.5 0.00 0.00 0.00 58 1013.4
20260505023050 15 51 4.8 12.9 0.00 0.00 0.00 58 1013.5
20260505021603 15 36 3.2 8.0 0.00 0.00 0.00 58 1013.5
20260505020049 15 13 1.6 4.8 0.00 0.00 0.00 58 1013.5
20260505014547 15 13 1.6 6.4 0.00 0.00 0.00 57 1013.5
20260505013045 15 5 3.2 8.0 0.00 0.00 0.00 57 1013.7
20260505011551 15 7 3.2 8.0 0.00 0.00 0.00 56 1013.7
20260504223038 16 299 0.0 4.8 0.00 0.00 0.00 65 1014.0
20260504221538 16 297 1.6 6.4 0.00 0.00 0.00 67 1013.9
20260504220042 15 301 4.8 11.3 0.00 0.00 0.00 68 1013.9
20260504214536 15 297 3.2 9.7 0.00 0.00 0.00 69 1013.8
20260504213034 15 267 3.2 6.4 0.00 0.00 0.00 67 1013.9
20260504211533 16 257 4.8 6.4 0.00 0.00 0.00 66 1014.0
20260504210033 16 259 3.2 8.0 0.00 0.00 0.00 64 1013.9
20260504204547 16 259 3.2 9.7 0.00 0.00 0.00 63 1013.6
20260504203033 16 264 8.0 16.1 0.00 0.00 0.00 62 1013.4
20260504201532 17 263 9.7 14.5 0.00 0.00 0.00 61 1013.4
20260504200034 17 267 9.7 14.5 0.00 0.00 0.00 59 1013.2
20260504194537 17 259 9.7 16.1 0.00 0.00 0.00 58 1012.9
20260504193032 18 269 11.3 19.3 0.00 0.00 0.00 57 1012.8
20260504191530 18 275 11.3 22.5 0.00 0.00 0.00 56 1012.8
20260504190036 18 269 12.9 20.9 0.00 0.00 0.00 54 1012.7
20260504184534 19 274 12.9 24.1 0.00 0.00 0.00 53 1012.5
20260504183032 20 253 16.1 27.4 0.00 0.00 0.00 52 1012.3
20260504181528 20 242 12.9 27.4 0.00 0.00 0.00 52 1012.3
20260504180029 21 286 14.5 29.0 0.00 0.00 0.00 51 1012.2
20260504174527 21 250 11.3 27.4 0.00 0.00 0.00 50 1012.1
20260504173027 21 244 16.1 24.1 0.00 0.00 0.00 49 1012.2
20260504171527 22 271 12.9 33.8 0.00 0.00 0.00 50 1012.1
20260504081537 17 275 1.6 6.4 0.00 0.00 0.00 68 1014.2